Date String (YYYY-MM-DD hh:mm:ss) UTC,Instrument flags,Ambient pressure (hPa),Sample flow (lpm),Bypass flow (lpm),Sample temperature (°C),Ambient temperature (°C),ASC tube jacket temperature (°C),LED temperature (°C),Box temperature (°C),Sample RH (%),Span deviation,Mass concentration (μg/m³),Mass concentration (μg/m³),Mass concentration (μg/m³)
DateTimeUTC,F1_M11,P_M11,Q1_M11,Q2_M11,T1_M11,T2_M11,T3_M11,T4_M11,T5_M11,U1_M11,ZSPAN_M11,X2_M11,X0_M11,X1_M11
2023-01-29 14:00:00,,0823.3,5.01,0.00,22.4,20.6,00.0,31.4,23.9,04.8,0000.0,0003.88,0007.02,0003.66
2023-01-29 14:01:00,,0823.3,5.00,0.00,22.5,21.5,00.0,31.3,24.2,04.7,0000.0,0003.87,0007.01,0003.66
2023-01-29 14:02:00,,0823.4,5.00,0.00,22.6,22.4,00.0,31.3,24.4,04.7,0000.0,0003.88,0007.03,0003.66
2023-01-29 14:03:00,,0823.4,5.00,0.00,22.7,23.1,00.0,31.3,24.7,04.7,0000.0,0003.88,0007.04,0003.67
2023-01-29 14:04:00,,0823.3,4.99,0.00,22.7,22.7,00.0,31.4,24.6,04.7,0000.0,0003.89,0007.14,0003.67
2023-01-29 14:05:00,,0823.3,5.02,0.00,22.7,22.1,00.0,31.4,24.4,04.6,0000.0,0003.92,0007.15,0003.67
2023-01-29 14:06:00,,0823.3,5.03,0.00,22.7,21.6,00.0,31.4,24.3,04.7,0000.0,0003.90,0006.98,0003.66
2023-01-29 14:07:00,,0823.3,5.00,0.00,22.6,21.1,00.0,31.4,24.2,04.7,0000.0,0003.91,0006.91,0003.67
2023-01-29 14:08:00,,0823.3,5.01,0.00,22.5,20.8,00.0,31.4,24.1,04.7,0000.0,0003.93,0005.97,0003.68
2023-01-29 14:09:00,,0823.3,4.98,0.00,22.5,20.6,00.0,31.4,24.0,04.7,0000.0,0003.95,0006.00,0003.67
2023-01-29 14:10:00,,0823.2,4.99,0.00,22.4,20.9,00.0,31.4,24.0,04.7,0000.0,0003.94,0006.00,0003.67
2023-01-29 14:11:00,,0823.3,4.99,0.00,22.5,21.9,00.0,31.3,24.3,04.7,0000.0,0003.92,0005.40,0003.66
2023-01-29 14:12:00,,0823.3,4.99,0.00,22.6,22.8,00.0,31.3,24.6,04.6,0000.0,0003.93,0005.40,0003.65
2023-01-29 14:13:00,,0823.2,4.98,0.00,22.8,23.2,00.0,31.4,24.7,04.6,0000.0,0003.91,0005.38,0003.64
2023-01-29 14:14:00,,0823.2,4.98,0.00,22.8,22.5,00.0,31.4,24.6,04.6,0000.0,0003.88,0005.27,0003.62
2023-01-29 14:15:00,,0823.2,5.01,0.00,22.7,21.9,00.0,31.5,24.4,04.6,0000.0,0003.88,0005.25,0003.63
2023-01-29 14:16:00,,0823.3,5.00,0.00,22.7,21.5,00.0,31.5,24.3,04.6,0000.0,0003.85,0005.29,0003.63
2023-01-29 14:17:00,,0823.4,5.01,0.00,22.6,21.1,00.0,31.5,24.2,04.6,0000.0,0003.87,0005.52,0003.64
2023-01-29 14:18:00,,0823.4,4.99,0.00,22.6,20.9,00.0,31.4,24.1,04.6,0000.0,0003.90,0005.61,0003.66
2023-01-29 14:19:00,,0823.3,4.99,0.00,22.5,20.7,00.0,31.4,24.0,04.7,0000.0,0003.91,0005.67,0003.67
2023-01-29 14:20:00,,0823.3,5.02,0.00,22.4,20.8,00.0,31.4,24.0,04.7,0000.0,0003.90,0005.56,0003.68
2023-01-29 14:21:00,,0823.4,5.00,0.00,22.5,21.8,00.0,31.4,24.3,04.7,0000.0,0003.92,0005.57,0003.69
2023-01-29 14:22:00,,0823.4,4.99,0.00,22.6,22.7,00.0,31.4,24.6,04.6,0000.0,0003.94,0005.70,0003.70
2023-01-29 14:23:00,,0823.4,5.01,0.00,22.8,23.2,00.0,31.4,24.8,04.6,0000.0,0003.97,0005.80,0003.72
2023-01-29 14:24:00,,0823.4,4.99,0.00,22.8,22.7,00.0,31.4,24.7,04.6,0000.0,0003.99,0005.83,0003.73
2023-01-29 14:25:00,,0823.4,5.00,0.00,22.7,22.1,00.0,31.5,24.5,04.6,0000.0,0004.04,0006.01,0003.76
2023-01-29 14:26:00,,0823.3,5.00,0.00,22.7,21.6,00.0,31.5,24.3,04.6,0000.0,0004.06,0006.08,0003.77
2023-01-29 14:27:00,,0823.3,5.01,0.00,22.6,21.2,00.0,31.5,24.2,04.6,0000.0,0004.05,0005.96,0003.76
2023-01-29 14:28:00,,0823.2,5.01,0.00,22.6,20.9,00.0,31.5,24.1,04.6,0000.0,0004.03,0005.73,0003.75
2023-01-29 14:29:00,,0823.4,4.99,0.00,22.5,20.7,00.0,31.4,24.0,04.6,0000.0,0004.02,0005.74,0003.73
2023-01-29 14:30:00,,0823.3,5.03,0.00,22.5,21.2,00.0,31.4,24.2,04.6,0000.0,0004.00,0005.73,0003.71
2023-01-29 14:31:00,,0823.3,5.00,0.00,22.6,22.2,00.0,31.4,24.5,04.6,0000.0,0003.98,0005.66,0003.70
2023-01-29 14:32:00,,0823.3,5.00,0.00,22.7,23.2,00.0,31.4,24.7,04.6,0000.0,0003.95,0005.55,0003.70
2023-01-29 14:33:00,,0823.4,4.99,0.00,22.8,23.2,00.0,31.4,24.8,04.6,0000.0,0003.95,0005.49,0003.69
2023-01-29 14:34:00,,0823.3,5.00,0.00,22.8,22.5,00.0,31.5,24.6,04.6,0000.0,0003.98,0005.64,0003.69
2023-01-29 14:35:00,,0823.4,5.00,0.00,22.8,21.9,00.0,31.5,24.5,04.6,0000.0,0003.99,0005.83,0003.67
2023-01-29 14:36:00,,0823.4,4.99,0.00,22.7,21.4,00.0,31.5,24.3,04.6,0000.0,0003.99,0005.86,0003.67
2023-01-29 14:37:00,,0823.3,5.00,0.00,22.6,21.0,00.0,31.5,24.1,04.6,0000.0,0003.98,0005.77,0003.67
2023-01-29 14:38:00,,0823.3,5.00,0.00,22.6,20.8,00.0,31.5,24.1,04.6,0000.0,0003.99,0005.77,0003.68
2023-01-29 14:39:00,,0823.3,5.00,0.00,22.5,20.7,00.0,31.5,24.0,04.6,0000.0,0003.99,0005.73,0003.68
2023-01-29 14:40:00,,0823.3,5.02,0.00,22.6,21.6,00.0,31.4,24.3,04.6,0000.0,0004.00,0005.74,0003.69
2023-01-29 14:41:00,,0823.3,5.00,0.00,22.7,22.5,00.0,31.4,24.6,04.6,0000.0,0004.02,0005.76,0003.70
2023-01-29 14:42:00,,0823.3,5.00,0.00,22.8,23.2,00.0,31.4,24.8,04.6,0000.0,0004.06,0005.91,0003.71
2023-01-29 14:43:00,,0823.4,5.00,0.00,22.8,22.8,00.0,31.5,24.7,04.6,0000.0,0004.10,0006.12,0003.71
2023-01-29 14:44:00,,0823.3,5.00,0.00,22.8,22.2,00.0,31.5,24.5,04.6,0000.0,0004.10,0006.19,0003.71
2023-01-29 14:45:00,,0823.4,5.00,0.00,22.7,21.7,00.0,31.5,24.3,04.6,0000.0,0004.07,0005.99,0003.70
2023-01-29 14:46:00,,0823.4,5.02,0.00,22.7,21.3,00.0,31.5,24.2,04.6,0000.0,0004.05,0005.91,0003.70
2023-01-29 14:47:00,,0823.4,5.01,0.00,22.6,21.0,00.0,31.5,24.1,04.6,0000.0,0004.06,0005.91,0003.70
2023-01-29 14:48:00,,0823.3,5.00,0.00,22.5,20.7,00.0,31.5,24.1,04.6,0000.0,0004.06,0005.99,0003.69
2023-01-29 14:49:00,,0823.3,5.02,0.00,22.5,20.7,00.0,31.5,24.0,04.6,0000.0,0004.06,0005.96,0003.69
2023-01-29 14:50:00,,0823.4,5.02,0.00,22.5,21.5,00.0,31.4,24.2,04.6,0000.0,0004.08,0006.04,0003.70
2023-01-29 14:51:00,,0823.4,4.99,0.00,22.6,22.4,00.0,31.4,24.5,04.6,0000.0,0004.11,0006.18,0003.71
2023-01-29 14:52:00,,0823.4,4.99,0.00,22.8,23.1,00.0,31.4,24.7,04.6,0000.0,0004.10,0006.12,0003.71
2023-01-29 14:53:00,,0823.4,5.03,0.00,22.8,22.9,00.0,31.5,24.7,04.6,0000.0,0004.06,0005.94,0003.72
2023-01-29 14:54:00,,0823.4,5.00,0.00,22.8,22.3,00.0,31.5,24.6,04.6,0000.0,0004.04,0005.78,0003.73
2023-01-29 14:55:00,,0823.4,5.00,0.00,22.8,21.8,00.0,31.5,24.4,04.6,0000.0,0004.04,0005.71,0003.74
2023-01-29 14:56:00,,0823.4,5.00,0.00,22.7,21.3,00.0,31.5,24.3,04.6,0000.0,0004.05,0005.76,0003.75
2023-01-29 14:57:00,,0823.4,5.01,0.00,22.6,21.1,00.0,31.5,24.2,04.6,0000.0,0004.06,0005.72,0003.76
2023-01-29 14:58:00,,0823.5,4.99,0.00,22.6,20.8,00.0,31.5,24.1,04.6,0000.0,0004.07,0005.72,0003.77
2023-01-29 14:59:00,,0823.5,4.98,0.00,22.5,20.6,00.0,31.5,24.1,04.7,0000.0,0004.10,0005.94,0003.78
